Notices

What's New in latest Release from April 7th, 2021:

- Updated Glossary, including Speed of Maximum Gust, and Total Hourly Precipitation

- Updated national and regional climate services offices contacts and prices information

- Addition of station inventory lists for 1981-2010, 1971-2000, and 1961-1990 Normals.

If you haven't already, please take our survey and provide feedback about our website: https://eccc.sondage-survey.ca/f/LanguageSelection.aspx?s=442ca660-fcf1-47c0-95a9-59707d6fd709

Hourly Data Report for May 30, 2020

TRENTON A
ONTARIO
Current Station Operator: DND

44°07'00.000" N
77°32'00.000" W
86.30 m
6158875
71621
YTR

Download Data

Hourly Data (May 2020)
Hourly Data Report for May 30, 2020
TIME
LST
Temp Definition
°C
Dew Point Definition
°C
Rel Hum Definition
%
Precip. Amount Definition
mm

Wind Dir Definition
10's deg

Wind Spd Definition
km/h
Visibility Definition
km
Stn Press Definition
kPa
Hmdx Definition


Wind Chill Definition


Weather Definition


00:00 14.7 12.7 88   29 13 24.1 100.02     Cloudy
01:00 14.7 12.7 88   28 13 24.1 100.09     Cloudy
02:00 14.2 12.2 88   30 11 24.1 100.17     Mostly Cloudy
03:00 12.9 11.7 92   30 8 24.1 100.24     Mainly Clear
04:00 12.2 11.2 94   28 4 24.1 100.28     Mainly Clear
05:00 11.3 10.6 95   27 9 24.1 100.36     Mainly Clear
06:00 13.2 11.8 91   30 11 24.1 100.41     Mainly Clear
07:00 14.0 10.9 82   32 15 24.1 100.41     Mostly Cloudy
08:00 15.8 11.7 77   26 9 24.1 100.39     Mostly Cloudy
09:00 16.5 11.5 72   19 13 24.1 100.36     Mostly Cloudy
10:00 15.1 12.2 83   21 17 24.1 100.31     Mostly Cloudy
11:00 16.7 12.0 74   22 21 24.1 100.24     Mostly Cloudy
12:00 16.6 11.6 72   21 17 24.1 100.18     Mostly Cloudy
13:00 16.5 11.8 74   22 24 24.1 100.18     Rain Showers
14:00 17.7 12.9 73   20 22 24.1 100.13     Cloudy
15:00 15.9 10.3 69   27 17 16.1 100.17     Rain Showers
16:00 17.2 12.3 73   28 24 24.1 100.20     Mostly Cloudy
17:00 16.0 10.3 69   30 26 24.1 100.30     Mostly Cloudy
18:00 15.5 9.3 67   30 22 24.1 100.38     Mainly Clear
19:00 14.5 5.5 55   32 24 24.1 100.50     Mainly Clear
20:00 12.5 5.3 62   32 15 24.1 100.63     Mainly Clear
21:00 10.4 5.5 72   34 17 24.1 100.78     Mainly Clear
22:00 8.6 4.6 76   35 11 24.1 100.87     Mainly Clear
23:00 7.6 3.6 76   35 11 24.1 100.92     Mainly Clear

Notes on Data Quality.

Legend

  • E = Estimated
  • M = Missing
  • NA = Not Available*
  • [empty] = Indicates an unobserved value
Date modified: